Tracking 21045 objects as of 3-Aug-2020
HD Live streaming from Space Station
objects crossing your sky now

RELAY 2

Track RELAY 2 now!
10-day predictions
RELAY 2 is classified as:


NORAD ID: 737
Int'l Code: 1964-003A
Perigee: 1,878.2 km
Apogee: 7,636.6 km
Inclination: 46.4 °
Period: 194.7 minutes
Semi major axis: 11128 km
RCS: 0.7112 m2 (medium)
Launch date: January 21, 1964
Source: United States (US)
Launch site: AIR FORCE EASTERN TEST RANGE (AFETR)
aabbcc
Your satellite tracking list
Your tracking list is empty




NASA's NSSDC Master Catalog

Two Line Element Set (TLE):
1   737U 64003A   20215.41479641 -.00000022 +00000-0 +00000-0 0  9991
2   737 046.4420 239.4439 2587266 137.0499 246.3987 07.39527863527410
Source of the keplerian elements: AFSPC